DW1114 Weather Reports


time (UTC)temp
C
wind
direction
speed
KPH
gust
KPH
rain 1hr
cm
rain 24hr
cm
rain mn
cm
humidity
%
barometer
mb
20260508231403 15 247 1.6 9.7 0.00 0.00 0.00 1009.9
20260508230903 16 269 0.0 1.6 0.00 0.00 0.00 1009.5
20260508230403 16 270 0.0 9.7 0.00 0.00 0.00 1009.9
20260508225903 16 270 0.0 9.7 0.00 0.00 0.00 1010.2
20260508225445 16 23 0.0 8.0 0.00 0.00 0.00 1009.9
20260508224903 16 23 0.0 8.0 0.00 0.00 0.00 1009.2
20260508224404 16 288 0.0 11.3 0.00 0.00 0.00 1009.5
20260508223924 16 203 0.0 11.3 0.00 0.00 0.00 1010.2
20260508223424 16 234 0.0 9.7 0.00 0.00 0.00 1009.9
20260508222903 17 292 0.0 9.7 0.00 0.00 0.00 1009.2
20260508222403 17 260 0.0 9.7 0.00 0.00 0.00 1009.9
20260508221903 17 267 0.0 4.8 0.00 0.00 0.00 1009.9
20260508221402 17 237 0.0 4.8 0.00 0.00 0.00 1010.2
20260508220903 17 247 0.0 6.4 0.00 0.00 0.00 1009.9
20260508220403 17 266 0.0 6.4 0.00 0.00 0.00 1009.9
20260508215924 17 274 3.2 8.0 0.00 0.00 0.00 1009.9
20260508215403 17 283 4.8 8.0 0.00 0.00 0.00 1009.9
20260508214902 17 229 0.0 6.4 0.00 0.00 0.00 1008.8
20260508214403 17 265 0.0 4.8 0.00 0.00 0.00 1009.2
20260508213903 17 263 0.0 4.8 0.00 0.00 0.00 1009.5
20260508213424 17 247 0.0 9.7 0.00 0.00 0.00 1009.5
20260508212903 17 206 0.0 9.7 0.00 0.00 0.00 1009.9
20260508212404 17 268 1.6 8.0 0.00 0.00 0.00 1009.5
20260508211924 18 184 0.0 8.0 0.00 0.00 0.00 1009.5
20260508211403 18 188 1.6 8.0 0.00 0.00 0.00 1009.9
20260508210902 17 218 1.6 4.8 0.00 0.00 0.00 1009.9
20260508210403 18 269 3.2 4.8 0.00 0.00 0.00 1010.2
20260508205403 18 285 3.2 14.5 0.00 0.00 0.00 1009.9
20260508204903 18 255 3.2 9.7 0.00 0.00 0.00 1009.5
20260508204402 18 254 3.2 9.7 0.00 0.00 0.00 1010.2
20260508203903 18 247 4.8 11.3 0.00 0.00 0.00 1010.2
20260508203424 18 265 1.6 12.9 0.00 0.00 0.00 1010.5
20260508202903 18 250 0.0 16.1 0.00 0.00 0.00 1009.9
20260508202403 18 259 6.4 16.1 0.00 0.00 0.00 1010.2
20260508201904 18 260 4.8 16.1 0.00 0.00 0.00 1010.5
20260508201403 18 261 3.2 16.1 0.00 0.00 0.00 1010.5
20260508200903 18 262 1.6 6.4 0.00 0.00 0.00 1010.5
20260508200403 18 196 0.0 11.3 0.00 0.00 0.00 1009.5
20260508195925 18 255 4.8 11.3 0.00 0.00 0.00 1010.2
20260508195403 18 199 1.6 11.3 0.00 0.00 0.00 1009.9
20260508194903 18 212 4.8 12.9 0.00 0.00 0.00 1010.2
20260508194403 18 203 3.2 14.5 0.00 0.00 0.00 1010.5
20260508193903 18 208 4.8 14.5 0.00 0.00 0.00 1010.9
20260508193424 18 260 4.8 9.7 0.00 0.00 0.00 1010.9
20260508192902 18 232 4.8 14.5 0.00 0.00 0.00 1010.9
20260508192403 18 208 6.4 17.7 0.00 0.00 0.00 1010.9
20260508191903 19 266 8.0 19.3 0.00 0.00 0.00 1010.5
20260508191403 20 280 8.0 19.3 0.00 0.00 0.00 1010.9
20260508190903 20 249 4.8 24.1 0.00 0.00 0.00 1010.5
20260508190403 20 257 8.0 24.1 0.00 0.00 0.00 1010.5
20260508185924 20 263 4.8 12.9 0.00 0.00 0.00 1010.9
20260508185403 20 242 3.2 11.3 0.00 0.00 0.00 1011.5
20260508184903 19 237 4.8 16.1 0.00 0.00 0.00 1010.9
20260508184402 19 254 6.4 20.9 0.00 0.00 0.00 1011.2
20260508183903 19 234 8.0 22.5 0.00 0.00 0.00 1011.5
20260508183403 19 246 6.4 22.5 0.00 0.00 0.00 1011.5
20260508182926 19 266 8.0 20.9 0.00 0.00 0.00 1011.9
20260508182424 19 225 4.8 27.4 0.00 0.00 0.00 1011.5
20260508181903 18 275 9.7 27.4 0.00 0.00 0.00 1010.9
20260508181402 18 248 4.8 32.2 0.00 0.00 0.00 1011.9
20260508180924 18 279 12.9 32.2 0.00 0.00 0.00 1011.9
20260508180403 18 287 4.8 14.5 0.00 0.00 0.00 1012.2
20260508175902 18 223 4.8 14.5 0.00 0.00 0.00 1012.2
20260508175445 18 225 3.2 14.5 0.00 0.00 0.00 1011.5
20260508174903 18 224 4.8 16.1 0.00 0.00 0.00 1011.9
20260508174403 18 213 6.4 19.3 0.00 0.00 0.00 1012.2
20260508173903 18 244 6.4 19.3 0.00 0.00 0.00 1011.9
20260508173403 18 255 8.0 19.3 0.00 0.00 0.00 1011.9
20260508172903 18 247 8.0 27.4 0.00 0.00 0.00 1012.2
20260508172404 18 252 8.0 27.4 0.00 0.00 0.00 1012.6
20260508171903 18 213 4.8 20.9 0.00 0.00 0.00 1012.6
20260508171403 18 264 4.8 20.9 0.00 0.00 0.00 1012.9
20260508170924 18 201 8.0 32.2 0.00 0.00 0.00 1012.6
20260508170403 18 258 9.7 32.2 0.00 0.00 0.00 1012.9
20260508165926 18 268 11.3 29.0 0.00 0.00 0.00 1012.6
20260508165403 18 254 8.0 19.3 0.00 0.00 0.00 1012.6
20260508164904 18 246 6.4 19.3 0.00 0.00 0.00 1013.2
20260508164445 18 206 6.4 22.5 0.00 0.00 0.00 1012.6
20260508163902 18 200 6.4 22.5 0.00 0.00 0.00 1013.2
20260508163403 18 210 6.4 27.4 0.00 0.00 0.00 1012.9
20260508162945 18 271 8.0 27.4 0.00 0.00 0.00 1013.2
20260508162424 17 264 9.7 25.7 0.00 0.00 0.00 1012.9
20260508161903 17 270 9.7 25.7 0.00 0.00 0.00 1013.2
20260508161402 17 276 11.3 22.5 0.00 0.00 0.00 1012.9
20260508160924 18 208 11.3 19.3 0.00 0.00 0.00 1012.9
20260508155403 17 246 6.4 16.1 0.00 0.00 0.00 1012.9
20260508154903 16 187 3.2 20.9 0.00 0.00 0.00 1013.2
20260508154403 16 216 6.4 20.9 0.00 0.00 0.00 1013.2
20260508153903 16 173 4.8 8.0 0.00 0.00 0.00 1013.6
20260508153402 16 161 1.6 9.7 0.00 0.00 0.00 1013.2
20260508152903 15 179 6.4 9.7 0.00 0.00 0.00 1012.9
20260508152402 15 198 3.2 8.0 0.00 0.00 0.00 1013.2
20260508151903 15 179 3.2 9.7 0.00 0.00 0.00 1013.6
20260508151403 15 197 3.2 9.7 0.00 0.00 0.00 1013.2
20260508150903 15 197 3.2 11.3 0.00 0.00 0.00 1013.9
20260508150402 15 199 6.4 11.3 0.00 0.00 0.00 1013.6
20260508145903 15 184 1.6 6.4 0.00 0.00 0.00 1013.2
20260508145446 15 207 3.2 12.9 0.00 0.00 0.00 1013.2
20260508144903 15 238 4.8 12.9 0.00 0.00 0.00 1013.6
20260508144425 15 202 6.4 9.7 0.00 0.00 0.00 1013.9
20260508143902 15 193 4.8 19.3 0.00 0.00 0.00 1013.2
20260508143403 15 210 1.6 19.3 0.00 0.00 0.00 1013.9
20260508142904 15 249 6.4 16.1 0.00 0.00 0.00 1013.6
20260508142403 15 242 4.8 19.3 0.00 0.00 0.00 1013.6
20260508141924 15 239 6.4 19.3 0.00 0.00 0.00 1013.9
20260508141403 14 222 3.2 14.5 0.00 0.00 0.00 1013.6
20260508140924 14 253 6.4 22.5 0.00 0.00 0.00 1013.6
20260508140403 14 266 6.4 22.5 0.00 0.00 0.00 1013.6
20260508135925 14 216 6.4 24.1 0.00 0.00 0.00 1013.2
20260508135403 13 264 8.0 24.1 0.00 0.00 0.00 1013.6
20260508134903 13 248 4.8 24.1 0.00 0.00 0.00 1013.2
20260508134424 13 236 3.2 20.9 0.00 0.00 0.00 1013.9
20260508133903 13 250 8.0 20.9 0.00 0.00 0.00 1013.6
20260508133402 13 217 4.8 17.7 0.00 0.00 0.00 1013.2
20260508132903 13 249 6.4 17.7 0.00 0.00 0.00 1013.9
20260508132403 13 240 6.4 17.7 0.00 0.00 0.00 1013.9
20260508131903 12 240 8.0 17.7 0.00 0.00 0.00 1014.3
20260508131424 12 205 6.4 22.5 0.00 0.00 0.00 1013.6
20260508130903 12 268 9.7 22.5 0.00 0.00 0.00 1013.2
20260508130402 12 242 3.2 11.3 0.00 0.00 0.00 1014.3
20260508125903 12 207 4.8 9.7 0.00 0.00 0.00 1013.2
20260508125402 12 200 4.8 9.7 0.00 0.00 0.00 1013.2
20260508124903 11 203 3.2 9.7 0.00 0.00 0.00 1013.6
20260508124403 11 197 3.2 9.7 0.00 0.00 0.00 1013.2
20260508123903 11 203 3.2 8.0 0.00 0.00 0.00 1012.9
20260508123402 11 197 4.8 8.0 0.00 0.00 0.00 1013.6
20260508122903 11 202 3.2 8.0 0.00 0.00 0.00 1013.2
20260508122402 10 206 3.2 8.0 0.00 0.00 0.00 1013.6
20260508121903 10 200 4.8 8.0 0.00 0.00 0.00 1013.2
20260508121403 10 202 3.2 8.0 0.00 0.00 0.00 1013.6
20260508120924 10 194 3.2 8.0 0.00 0.00 0.00 1013.2
20260508120403 10 210 3.2 8.0 0.00 0.00 0.00 1013.2
20260508115903 10 203 3.2 8.0 0.00 0.00 0.00 1013.2
20260508115403 10 208 3.2 8.0 0.00 0.00 0.00 1013.2
20260508114903 9 205 3.2 8.0 0.00 0.00 0.00 1013.2
20260508114403 9 204 3.2 8.0 0.00 0.00 0.00 1013.6
20260508113903 9 218 1.6 6.4 0.00 0.00 0.00 1012.9
20260508113403 9 197 3.2 8.0 0.00 0.00 0.00 1013.2
20260508112924 9 205 4.8 8.0 0.00 0.00 0.00 1012.9
20260508112403 9 214 3.2 8.0 0.00 0.00 0.00 1012.9
20260508111903 9 204 3.2 8.0 0.00 0.00 0.00 1012.9
20260508111403 9 196 1.6 4.8 0.00 0.00 0.00 1012.9
20260508110903 9 202 1.6 4.8 0.00 0.00 0.00 1013.2
20260508110403 8 213 3.2 4.8 0.00 0.00 0.00 1013.2
20260508105902 8 205 3.2 4.8 0.00 0.00 0.00 1012.9
20260508105403 8 207 1.6 4.8 0.00 0.00 0.00 1012.9
20260508104924 8 211 0.0 9.7 0.00 0.00 0.00 1012.9
20260508104424 8 211 3.2 9.7 0.00 0.00 0.00 1013.2
20260508103903 8 201 1.6 6.4 0.00 0.00 0.00 1013.2
20260508103403 8 210 3.2 6.4 0.00 0.00 0.00 1013.2
20260508102904 8 196 3.2 6.4 0.00 0.00 0.00 1012.6
20260508102403 8 198 3.2 6.4 0.00 0.00 0.00 1012.9
20260508101903 8 200 3.2 4.8 0.00 0.00 0.00 1013.6
20260508101403 8 195 3.2 4.8 0.00 0.00 0.00 1013.2
20260508095903 8 201 3.2 4.8 0.00 0.00 0.00 1012.9
20260508095403 8 202 3.2 4.8 0.00 0.00 0.00 1012.9
20260508094903 8 202 1.6 4.8 0.00 0.00 0.00 1012.9
20260508094403 8 200 1.6 4.8 0.00 0.00 0.00 1013.2
20260508093903 8 203 3.2 4.8 0.00 0.00 0.00 1012.9
20260508093403 7 201 3.2 3.2 0.00 0.00 0.00 1013.2
20260508092903 7 207 1.6 6.4 0.00 0.00 0.00 1013.2
20260508092403 8 204 1.6 8.0 0.00 0.00 0.00 1013.6
20260508091903 8 216 0.0 8.0 0.00 0.00 0.00 1012.9
20260508091402 8 225 0.0 4.8 0.00 0.00 0.00 1013.2
20260508090903 8 205 3.2 4.8 0.00 0.00 0.00 1013.2
20260508090403 8 203 3.2 4.8 0.00 0.00 0.00 1012.9
20260508085903 8 205 3.2 4.8 0.00 0.00 0.00 1012.6
20260508085424 8 203 3.2 6.4 0.00 0.00 0.00 1012.9
20260508084903 8 203 3.2 6.4 0.00 0.00 0.00 1012.6
20260508084403 8 204 3.2 4.8 0.00 0.00 0.00 1013.6
20260508083903 8 200 3.2 4.8 0.00 0.00 0.00 1013.2
20260508083424 8 204 3.2 4.8 0.00 0.00 0.00 1013.2
20260508082903 8 204 1.6 4.8 0.00 0.00 0.00 1013.2
20260508082403 8 212 0.0 8.0 0.00 0.00 0.00 1013.6
20260508081903 8 212 1.6 8.0 0.00 0.00 0.00 1012.9
20260508081403 8 208 1.6 4.8 0.00 0.00 0.00 1012.6
20260508080903 8 216 1.6 6.4 0.00 0.00 0.00 1012.9
20260508080403 8 212 1.6 6.4 0.00 0.00 0.00 1013.2
20260508075903 8 203 1.6 4.8 0.00 0.00 0.00 1013.2
20260508075403 8 202 0.0 4.8 0.00 0.00 0.00 1012.9
20260508074903 8 205 1.6 4.8 0.00 0.00 0.00 1012.9
20260508074403 8 200 3.2 4.8 0.00 0.00 0.00 1012.9
20260508073945 8 200 3.2 6.4 0.00 0.00 0.00 1012.6
20260508073402 8 201 3.2 6.4 0.00 0.00 0.00 1012.9
20260508072903 8 202 3.2 4.8 0.00 0.00 0.00 1012.9
20260508072402 8 201 3.2 4.8 0.00 0.00 0.00 1013.2
20260508071903 8 198 3.2 4.8 0.00 0.00 0.00 1013.6
20260508071403 8 230 0.0 4.8 0.00 0.00 0.00 1013.6
20260508070903 9 213 3.2 6.4 0.00 0.00 0.00 1013.2
20260508070403 8 230 3.2 6.4 0.00 0.00 0.00 1013.2
20260508065903 8 199 3.2 4.8 0.00 0.00 0.00 1013.2
20260508065403 8 208 3.2 6.4 0.00 0.00 0.00 1013.9
20260508064903 8 201 3.2 6.4 0.00 0.00 0.00 1013.2
20260508064403 8 202 3.2 6.4 0.00 0.00 0.00 1013.9
20260508063902 8 207 3.2 6.4 0.00 0.00 0.00 1013.9
20260508063403 8 201 0.0 4.8 0.00 0.00 0.00 1013.6
20260508062903 8 213 3.2 8.0 0.00 0.00 0.00 1013.6
20260508062403 9 223 3.2 8.0 0.00 0.00 0.00 1013.9
20260508061924 9 210 1.6 4.8 0.00 0.00 0.00 1013.9
20260508061425 9 201 1.6 4.8 0.00 0.00 0.00 1013.6
20260508060903 9 203 3.2 4.8 0.00 0.00 0.00 1013.6
20260508060424 9 202 3.2 6.4 0.00 0.00 0.00 1013.2
20260508055902 9 198 3.2 6.4 0.00 0.00 0.00 1013.6
20260508055425 9 192 3.2 6.4 0.00 0.00 0.00 1013.2
20260508054903 9 198 3.2 6.4 0.00 0.00 0.00 1013.6
20260508054403 9 204 3.2 4.8 0.00 0.00 0.00 1013.6
20260508053903 9 199 3.2 6.4 0.00 0.00 0.00 1013.6
20260508053403 9 205 4.8 6.4 0.00 0.00 0.00 1013.2
20260508052903 9 204 4.8 8.0 0.00 0.00 0.00 1013.6
20260508052403 9 199 4.8 8.0 0.00 0.00 0.00 1013.9
20260508051903 9 201 4.8 8.0 0.00 0.00 0.00 1013.9
20260508051424 10 198 3.2 8.0 0.00 0.00 0.00 1013.2
20260508050924 10 200 3.2 8.0 0.00 0.00 0.00 1013.6
20260508050403 10 200 3.2 6.4 0.00 0.00 0.00 1013.6
20260508045903 10 200 3.2 6.4 0.00 0.00 0.00 1013.6
20260508045425 10 206 3.2 6.4 0.00 0.00 0.00 1013.6
20260508044903 10 198 3.2 6.4 0.00 0.00 0.00 1013.6
20260508044403 10 205 4.8 6.4 0.00 0.00 0.00 1013.6
20260508043903 10 200 3.2 6.4 0.00 0.00 0.00 1013.6
20260508043403 10 200 3.2 6.4 0.00 0.00 0.00 1014.3
20260508042902 10 199 3.2 4.8 0.00 0.00 0.00 1013.6
20260508042403 10 200 3.2 6.4 0.00 0.00 0.00 1013.6
20260508041924 10 196 3.2 6.4 0.00 0.00 0.00 1013.9
20260508041403 10 198 3.2 4.8 0.00 0.00 0.00 1013.6
20260508040903 10 206 3.2 4.8 0.00 0.00 0.00 1013.9
20260508040403 10 194 3.2 6.4 0.00 0.00 0.00 1013.6
20260508035903 10 195 3.2 6.4 0.00 0.00 0.00 1013.2
20260508035403 10 202 3.2 4.8 0.00 0.00 0.00 1013.6
20260508034924 10 196 1.6 4.8 0.00 0.00 0.00 1013.2
20260508034403 10 199 3.2 4.8 0.00 0.00 0.00 1013.2
20260508033903 10 200 3.2 4.8 0.00 0.00 0.00 1013.2
20260508033403 10 199 3.2 4.8 0.00 0.00 0.00 1013.2
20260508032903 10 202 1.6 4.8 0.00 0.00 0.00 1013.6
20260508032424 10 182 0.0 3.2 0.00 0.00 0.00 1013.2
20260508031903 10 188 0.0 3.2 0.00 0.00 0.00 1013.2
20260508031403 10 202 3.2 3.2 0.00 0.00 0.00 1013.9
20260508030903 10 204 3.2 3.2 0.00 0.00 0.00 1014.3
20260508030403 10 180 0.0 1.6 0.00 0.00 0.00 1014.3
20260508025903 10 202 0.0 3.2 0.00 0.00 0.00 1013.2
20260508025403 10 185 0.0 4.8 0.00 0.00 0.00 1013.2
20260508024902 10 202 0.0 4.8 0.00 0.00 0.00 1013.2
20260508024403 10 202 0.0 3.2 0.00 0.00 0.00 1013.2
20260508023903 10 202 0.0 6.4 0.00 0.00 0.00 1013.6
20260508023403 10 201 0.0 8.0 0.00 0.00 0.00 1013.6
20260508022904 10 183 0.0 8.0 0.00 0.00 0.00 1013.2
20260508022403 10 202 0.0 6.4 0.00 0.00 0.00 1013.2
20260508021903 10 180 0.0 4.8 0.00 0.00 0.00 1013.6
20260508021403 10 195 0.0 4.8 0.00 0.00 0.00 1013.6
20260508020903 10 177 0.0 4.8 0.00 0.00 0.00 1013.2
20260508020402 11 197 0.0 6.4 0.00 0.00 0.00 1013.9
20260508015903 11 189 0.0 9.7 0.00 0.00 0.00 1012.9
20260508015402 11 180 0.0 9.7 0.00 0.00 0.00 1012.9
20260508014903 11 202 0.0 8.0 0.00 0.00 0.00 1013.2
20260508014403 11 202 0.0 8.0 0.00 0.00 0.00 1013.2
20260508013903 11 186 0.0 9.7 0.00 0.00 0.00 1013.2
20260508013403 11 180 0.0 9.7 0.00 0.00 0.00 1013.2
20260508012903 11 202 0.0 8.0 0.00 0.00 0.00 1012.9
20260508012403 10 202 0.0 8.0 0.00 0.00 0.00 1012.9
20260508011903 10 224 0.0 9.7 0.00 0.00 0.00 1012.9
20260508011403 10 202 0.0 9.7 0.00 0.00 0.00 1012.9
20260508010903 10 173 0.0 1.6 0.00 0.00 0.00 1012.9
20260508010402 11 225 0.0 9.7 0.00 0.00 0.00 1013.2
20260508005903 11 225 0.0 9.7 0.00 0.00 0.00 1013.6
20260508005403 11 224 0.0 8.0 0.00 0.00 0.00 1013.6
20260508004903 11 225 0.0 8.0 0.00 0.00 0.00 1013.2
20260508004403 11 269 0.0 9.7 0.00 0.00 0.00 1013.2
20260508003903 11 249 0.0 9.7 0.00 0.00 0.00 1013.2
20260508003403 11 170 0.0 6.4 0.00 0.00 0.00 1013.6
20260508002903 12 259 1.6 4.8 0.00 0.00 0.00 1013.2
20260508002403 12 289 0.0 8.0 0.00 0.00 0.00 1013.2
20260508001903 12 284 0.0 8.0 0.00 0.00 0.00 1013.6
20260508001403 12 237 1.6 9.7 0.00 0.00 0.00 1012.9
20260508000903 12 261 3.2 9.7 0.00 0.00 0.00 1013.2
20260508000404 13 251 1.6 6.4 0.00 0.00 0.00 1013.2
20260507235903 13 249 0.0 9.7 0.00 0.00 0.00 1012.9
20260507235403 13 263 3.2 9.7 0.00 0.00 0.00 1012.9
20260507234903 14 238 0.0 9.7 0.00 0.00 0.00 1012.6
20260507234403 14 275 3.2 9.7 0.00 0.00 0.00 1012.6
20260507233903 14 273 3.2 9.7 0.00 0.00 0.00 1012.9
20260507233403 15 279 3.2 16.1 0.00 0.00 0.00 1013.6
20260507232903 14 270 6.4 16.1 0.00 0.00 0.00 1012.9
20260507232403 14 234 1.6 12.9 0.00 0.00 0.00 1012.9
20260507231902 14 264 3.2 12.9 0.00 0.00 0.00 1013.6